| time (UTC) | temp F | wind direction | speed knots | gust knots | rain 1hr in | rain 24hr in | rain mn in | humidity % | barometer mb |
| 20260506082127 | 52 | 208 | 0.0 | 0.0 | 0.00 | 0.00 | 0.00 | 92 | 1017.9 |
| 20260506081131 | 52 | 208 | 0.0 | 0.0 | 0.00 | 0.00 | 0.00 | 91 | 1017.8 |
| 20260506080150 | 52 | 217 | 0.0 | 0.0 | 0.00 | 0.00 | 0.00 | 91 | 1017.8 |
| 20260506073140 | 53 | 217 | 0.0 | 0.0 | 0.00 | 0.00 | 0.00 | 90 | 1017.5 |
| 20260506072134 | 53 | 218 | 0.0 | 0.0 | 0.00 | 0.00 | 0.00 | 90 | 1017.4 |
| 20260506071134 | 53 | 217 | 0.0 | 0.0 | 0.00 | 0.00 | 0.00 | 90 | 1017.3 |
| 20260506070132 | 53 | 218 | 0.0 | 0.0 | 0.00 | 0.00 | 0.00 | 89 | 1017.3 |
| 20260506062138 | 54 | 204 | 0.0 | 0.0 | 0.00 | 0.00 | 0.00 | 88 | 1016.9 |
| 20260506061138 | 55 | 212 | 0.0 | 0.0 | 0.00 | 0.00 | 0.00 | 87 | 1016.8 |
| 20260506060140 | 55 | 216 | 0.0 | 0.0 | 0.00 | 0.00 | 0.00 | 87 | 1016.7 |
| 20260506051145 | 56 | 215 | 0.0 | 0.9 | 0.00 | 0.00 | 0.00 | 85 | 1016.4 |
| 20260506050145 | 57 | 217 | 0.0 | 0.0 | 0.00 | 0.00 | 0.00 | 84 | 1016.3 |
| 20260506045127 | 57 | 220 | 0.0 | 0.0 | 0.00 | 0.00 | 0.00 | 84 | 1016.3 |
| 20260506044129 | 58 | 216 | 0.0 | 2.6 | 0.00 | 0.00 | 0.00 | 83 | 1016.3 |
| 20260506043132 | 58 | 209 | 0.0 | 0.0 | 0.00 | 0.00 | 0.00 | 83 | 1016.2 |
| 20260506042136 | 58 | 209 | 0.0 | 0.0 | 0.00 | 0.00 | 0.00 | 83 | 1016.1 |
| 20260506041135 | 59 | 207 | 0.0 | 0.0 | 0.00 | 0.00 | 0.00 | 83 | 1016.1 |
| 20260506040138 | 59 | 206 | 0.0 | 0.0 | 0.00 | 0.00 | 0.00 | 82 | 1016.0 |
| 20260506035133 | 60 | 205 | 0.0 | 0.0 | 0.00 | 0.00 | 0.00 | 82 | 1015.9 |
| 20260506034136 | 60 | 205 | 0.0 | 0.0 | 0.00 | 0.00 | 0.00 | 81 | 1015.8 |
| 20260506033142 | 61 | 205 | 0.0 | 0.0 | 0.00 | 0.00 | 0.00 | 81 | 1015.6 |
| 20260506032138 | 61 | 205 | 0.0 | 0.0 | 0.00 | 0.00 | 0.00 | 80 | 1015.5 |
| 20260506031141 | 61 | 205 | 0.0 | 0.0 | 0.00 | 0.00 | 0.00 | 79 | 1015.4 |
| 20260506030150 | 62 | 205 | 0.0 | 0.0 | 0.00 | 0.00 | 0.00 | 78 | 1015.4 |
| 20260506025125 | 62 | 198 | 0.0 | 0.0 | 0.00 | 0.00 | 0.00 | 78 | 1015.3 |
| 20260506024143 | 62 | 191 | 0.0 | 0.9 | 0.00 | 0.00 | 0.00 | 78 | 1015.4 |
| 20260506023127 | 62 | 198 | 0.0 | 0.0 | 0.00 | 0.00 | 0.00 | 77 | 1015.3 |
| 20260506022129 | 63 | 204 | 0.0 | 2.6 | 0.00 | 0.00 | 0.00 | 77 | 1015.4 |
| 20260506021126 | 63 | 196 | 0.0 | 0.0 | 0.00 | 0.00 | 0.00 | 77 | 1015.4 |
| 20260506020144 | 63 | 192 | 0.0 | 5.2 | 0.00 | 0.00 | 0.00 | 77 | 1015.4 |
| 20260506015141 | 63 | 237 | 0.0 | 0.0 | 0.00 | 0.00 | 0.00 | 77 | 1015.3 |
| 20260506014142 | 63 | 217 | 0.0 | 2.6 | 0.00 | 0.00 | 0.00 | 77 | 1015.3 |
| 20260506013124 | 63 | 203 | 3.5 | 4.3 | 0.00 | 0.00 | 0.00 | 76 | 1015.3 |
| 20260506012124 | 63 | 199 | 0.0 | 5.2 | 0.00 | 0.00 | 0.00 | 76 | 1015.3 |
| 20260506011142 | 63 | 196 | 0.0 | 6.1 | 0.00 | 0.00 | 0.00 | 77 | 1015.4 |
| 20260506010143 | 63 | 246 | 0.0 | 5.2 | 0.00 | 0.00 | 0.00 | 75 | 1015.5 |
| 20260506005136 | 63 | 211 | 2.6 | 5.2 | 0.00 | 0.00 | 0.00 | 75 | 1015.4 |
| 20260506004138 | 63 | 248 | 0.0 | 5.2 | 0.00 | 0.00 | 0.00 | 75 | 1015.5 |
| 20260506003135 | 64 | 216 | 0.9 | 5.2 | 0.00 | 0.00 | 0.00 | 75 | 1015.6 |
| 20260506002137 | 63 | 276 | 0.9 | 7.8 | 0.00 | 0.00 | 0.00 | 76 | 1015.7 |
| 20260506001141 | 63 | 246 | 0.9 | 6.1 | 0.00 | 0.00 | 0.00 | 75 | 1015.6 |
| 20260506000140 | 63 | 209 | 0.0 | 7.0 | 0.00 | 0.00 | 0.00 | 75 | 1015.6 |
| 20260505235127 | 63 | 275 | 0.0 | 9.6 | 0.00 | 0.00 | 0.00 | 75 | 1015.7 |
| 20260505234130 | 63 | 286 | 0.0 | 7.8 | 0.00 | 0.00 | 0.00 | 75 | 1015.8 |
| 20260505233127 | 63 | 309 | 2.6 | 10.4 | 0.00 | 0.00 | 0.00 | 75 | 1016.0 |
| 20260505232127 | 63 | 297 | 3.5 | 6.1 | 0.00 | 0.00 | 0.00 | 75 | 1016.0 |
| 20260505231128 | 63 | 205 | 2.6 | 6.1 | 0.00 | 0.00 | 0.00 | 76 | 1016.1 |
| 20260505230142 | 63 | 206 | 0.9 | 3.5 | 0.00 | 0.00 | 0.00 | 77 | 1016.2 |
| 20260505225135 | 63 | 281 | 0.9 | 11.3 | 0.00 | 0.00 | 0.00 | 76 | 1016.2 |
| 20260505224136 | 62 | 249 | 0.0 | 5.2 | 0.00 | 0.00 | 0.00 | 77 | 1016.4 |
| 20260505223138 | 62 | 200 | 0.0 | 4.3 | 0.00 | 0.00 | 0.00 | 77 | 1016.4 |
| 20260505222139 | 61 | 188 | 0.0 | 5.2 | 0.00 | 0.00 | 0.00 | 78 | 1016.6 |
| 20260505221137 | 62 | 296 | 1.7 | 7.8 | 0.00 | 0.00 | 0.00 | 76 | 1016.6 |
| 20260505220136 | 62 | 238 | 0.0 | 4.3 | 0.00 | 0.00 | 0.00 | 78 | 1016.7 |
| 20260505215128 | 61 | 243 | 0.9 | 4.3 | 0.00 | 0.00 | 0.00 | 78 | 1016.7 |
| 20260505214124 | 61 | 249 | 0.0 | 2.6 | 0.00 | 0.00 | 0.00 | 78 | 1016.8 |
| 20260505213121 | 61 | 243 | 0.9 | 4.3 | 0.00 | 0.00 | 0.00 | 79 | 1016.8 |
| 20260505212142 | 60 | 187 | 0.0 | 6.1 | 0.00 | 0.00 | 0.00 | 78 | 1016.9 |
| 20260505211126 | 60 | 246 | 0.0 | 5.2 | 0.00 | 0.00 | 0.00 | 79 | 1016.9 |
| 20260505210141 | 60 | 252 | 0.0 | 0.0 | 0.00 | 0.00 | 0.00 | 80 | 1016.9 |
| 20260505205134 | 60 | 234 | 0.0 | 0.0 | 0.00 | 0.00 | 0.00 | 79 | 1016.9 |
| 20260505204135 | 60 | 236 | 0.9 | 4.3 | 0.00 | 0.00 | 0.00 | 80 | 1017.0 |
| 20260505203136 | 60 | 192 | 0.0 | 0.0 | 0.00 | 0.00 | 0.00 | 80 | 1017.0 |
| 20260505202130 | 59 | 229 | 0.0 | 0.0 | 0.00 | 0.00 | 0.00 | 81 | 1017.0 |
| 20260505201131 | 59 | 211 | 0.0 | 3.5 | 0.00 | 0.00 | 0.00 | 81 | 1017.0 |
| 20260505200134 | 59 | 233 | 0.0 | 0.9 | 0.00 | 0.00 | 0.00 | 81 | 1016.9 |
| 20260505195127 | 59 | 294 | 0.9 | 6.1 | 0.00 | 0.00 | 0.00 | 81 | 1017.0 |
| 20260505194131 | 59 | 229 | 0.0 | 0.0 | 0.00 | 0.00 | 0.00 | 81 | 1017.0 |
| 20260505193125 | 59 | 227 | 0.0 | 0.0 | 0.00 | 0.00 | 0.00 | 82 | 1017.1 |
| 20260505192125 | 58 | 209 | 0.0 | 0.0 | 0.00 | 0.00 | 0.00 | 82 | 1017.0 |
| 20260505191125 | 58 | 192 | 0.0 | 2.6 | 0.00 | 0.00 | 0.00 | 82 | 1017.0 |
| 20260505190143 | 58 | 200 | 0.0 | 0.0 | 0.00 | 0.00 | 0.00 | 83 | 1017.0 |
| 20260505185134 | 58 | 250 | 0.0 | 2.6 | 0.00 | 0.00 | 0.00 | 83 | 1017.1 |
| 20260505184136 | 57 | 193 | 0.0 | 0.0 | 0.00 | 0.00 | 0.00 | 84 | 1017.1 |
| 20260505183139 | 57 | 213 | 0.0 | 0.0 | 0.00 | 0.00 | 0.00 | 84 | 1017.0 |
| 20260505182138 | 57 | 232 | 0.0 | 0.0 | 0.00 | 0.00 | 0.00 | 84 | 1017.0 |
| 20260505181136 | 57 | 240 | 0.0 | 0.0 | 0.00 | 0.00 | 0.00 | 85 | 1016.9 |
| 20260505180152 | 57 | 237 | 0.0 | 0.0 | 0.00 | 0.00 | 0.00 | 84 | 1017.0 |
| 20260505175126 | 57 | 227 | 0.0 | 0.0 | 0.00 | 0.00 | 0.00 | 85 | 1016.9 |
| 20260505174127 | 56 | 215 | 0.0 | 0.0 | 0.00 | 0.00 | 0.00 | 86 | 1017.0 |
| 20260505173124 | 56 | 202 | 0.0 | 0.0 | 0.00 | 0.00 | 0.00 | 86 | 1016.9 |
| 20260505172125 | 56 | 231 | 0.0 | 0.0 | 0.00 | 0.00 | 0.00 | 87 | 1016.8 |
| 20260505171129 | 56 | 191 | 0.0 | 0.0 | 0.00 | 0.00 | 0.00 | 87 | 1016.8 |
| 20260505170149 | 56 | 192 | 0.0 | 0.0 | 0.00 | 0.00 | 0.00 | 87 | 1016.7 |
| 20260505165138 | 56 | 190 | 0.0 | 0.0 | 0.00 | 0.00 | 0.00 | 87 | 1016.7 |
| 20260505164139 | 56 | 178 | 0.0 | 0.0 | 0.00 | 0.00 | 0.00 | 87 | 1016.7 |
| 20260505163140 | 56 | 188 | 0.0 | 0.0 | 0.00 | 0.00 | 0.00 | 87 | 1016.6 |
| 20260505162140 | 56 | 188 | 0.0 | 0.0 | 0.00 | 0.00 | 0.00 | 87 | 1016.6 |
| 20260505161138 | 55 | 188 | 0.0 | 0.0 | 0.00 | 0.00 | 0.00 | 87 | 1016.5 |
| 20260505160136 | 55 | 187 | 0.0 | 0.0 | 0.00 | 0.00 | 0.00 | 87 | 1016.4 |
| 20260505153127 | 55 | 188 | 0.0 | 0.0 | 0.00 | 0.00 | 0.00 | 88 | 1016.3 |
| 20260505152126 | 55 | 187 | 0.0 | 0.0 | 0.00 | 0.00 | 0.00 | 89 | 1016.4 |
| 20260505151126 | 55 | 186 | 0.0 | 0.0 | 0.00 | 0.00 | 0.00 | 89 | 1016.2 |
| 20260505150146 | 55 | 202 | 0.0 | 0.0 | 0.00 | 0.00 | 0.00 | 89 | 1016.1 |
| 20260505140135 | 54 | 202 | 0.0 | 0.0 | 0.00 | 0.00 | 0.00 | 89 | 1015.5 |
| 20260505130148 | 54 | 188 | 0.0 | 0.0 | 0.00 | 0.00 | 0.00 | 89 | 1014.9 |
| 20260505124138 | 54 | 188 | 0.0 | 0.0 | 0.00 | 0.00 | 0.00 | 90 | 1014.8 |
| 20260505123137 | 54 | 188 | 0.0 | 0.0 | 0.00 | 0.00 | 0.00 | 90 | 1014.8 |
| 20260505122139 | 54 | 188 | 0.0 | 0.0 | 0.00 | 0.00 | 0.00 | 90 | 1014.8 |
| 20260505121122 | 54 | 188 | 0.0 | 0.0 | 0.00 | 0.00 | 0.00 | 90 | 1014.7 |
| 20260505120143 | 54 | 187 | 0.0 | 0.0 | 0.00 | 0.00 | 0.00 | 90 | 1014.7 |
| 20260505115129 | 54 | 187 | 0.0 | 0.0 | 0.00 | 0.00 | 0.00 | 90 | 1014.6 |
| 20260505114132 | 54 | 186 | 0.0 | 0.0 | 0.00 | 0.00 | 0.00 | 90 | 1014.6 |
| 20260505113130 | 54 | 186 | 0.0 | 0.0 | 0.00 | 0.00 | 0.00 | 90 | 1014.5 |
| 20260505112131 | 54 | 186 | 0.0 | 0.0 | 0.00 | 0.00 | 0.00 | 90 | 1014.5 |
| 20260505111130 | 54 | 185 | 0.0 | 0.0 | 0.00 | 0.00 | 0.00 | 90 | 1014.5 |
| 20260505110150 | 54 | 169 | 0.0 | 0.0 | 0.00 | 0.00 | 0.00 | 90 | 1014.4 |
| 20260505102141 | 54 | 166 | 0.0 | 0.0 | 0.00 | 0.00 | 0.00 | 91 | 1014.1 |
| 20260505101123 | 54 | 164 | 0.0 | 0.0 | 0.00 | 0.00 | 0.00 | 91 | 1014.2 |
| 20260505100142 | 54 | 232 | 0.0 | 0.0 | 0.00 | 0.00 | 0.00 | 91 | 1014.1 |
| 20260505095129 | 54 | 248 | 0.0 | 0.0 | 0.00 | 0.00 | 0.00 | 91 | 1014.0 |
| 20260505094127 | 54 | 178 | 0.0 | 0.0 | 0.00 | 0.00 | 0.00 | 91 | 1014.0 |
| 20260505093129 | 54 | 174 | 0.0 | 0.0 | 0.00 | 0.00 | 0.00 | 91 | 1013.9 |
| 20260505092129 | 54 | 173 | 0.0 | 0.0 | 0.00 | 0.00 | 0.00 | 91 | 1013.8 |
| 20260505091131 | 54 | 163 | 0.0 | 0.0 | 0.00 | 0.00 | 0.00 | 91 | 1013.8 |
| 20260505090146 | 54 | 185 | 0.0 | 0.0 | 0.00 | 0.00 | 0.00 | 91 | 1013.8 |
| 20260505085138 | 54 | 196 | 0.0 | 0.0 | 0.00 | 0.00 | 0.00 | 91 | 1013.7 |
| 20260505084138 | 53 | 206 | 0.0 | 0.0 | 0.00 | 0.00 | 0.00 | 92 | 1013.7 |
| 20260505083123 | 53 | 194 | 0.0 | 0.0 | 0.00 | 0.00 | 0.00 | 92 | 1013.6 |